| time (UTC) | temp F | wind direction | speed MPH | gust MPH | rain 1hr in | rain 24hr in | rain mn in | humidity % | barometer mb |
| 20260906022147 | 82 | 218 | 3.0 | 6.0 | 0.00 | 0.00 | 0.00 | 87 | 998.0 |
| 20260906021133 | 82 | 172 | 3.0 | 7.0 | 0.00 | 0.00 | 0.00 | 87 | 998.0 |
| 20260906020133 | 82 | 193 | 3.0 | 5.0 | 0.00 | 0.00 | 0.00 | 86 | 998.1 |
| 20260906015133 | 82 | 170 | 2.0 | 5.0 | 0.00 | 0.00 | 0.00 | 86 | 997.7 |
| 20260906014134 | 82 | 166 | 2.0 | 6.0 | 0.00 | 0.00 | 0.00 | 86 | 997.6 |
| 20260906013134 | 82 | 108 | 2.0 | 5.0 | 0.00 | 0.00 | 0.00 | 86 | 997.0 |
| 20260906012134 | 82 | 164 | 2.0 | 5.0 | 0.00 | 0.00 | 0.00 | 85 | 996.9 |
| 20260906011132 | 82 | 140 | 1.0 | 3.0 | 0.00 | 0.00 | 0.00 | 85 | 996.7 |
| 20260906010143 | 82 | 179 | 2.0 | 5.0 | 0.00 | 0.00 | 0.00 | 85 | 996.8 |
| 20260906005129 | 82 | 201 | 2.0 | 6.0 | 0.00 | 0.00 | 0.00 | 84 | 996.5 |
| 20260906004125 | 82 | 125 | 1.0 | 3.0 | 0.00 | 0.00 | 0.00 | 84 | 996.3 |
| 20260906003125 | 82 | 0 | 1.0 | 3.0 | 0.00 | 0.00 | 0.00 | 83 | 996.1 |
| 20260906002126 | 83 | 151 | 1.0 | 4.0 | 0.00 | 0.00 | 0.00 | 83 | 995.9 |
| 20260906001129 | 83 | 106 | 1.0 | 3.0 | 0.00 | 0.00 | 0.00 | 82 | 995.8 |
| 20260906000125 | 83 | 120 | 1.0 | 3.0 | 0.00 | 0.00 | 0.00 | 82 | 995.8 |
| 20260905235122 | 83 | 107 | 2.0 | 3.0 | 0.00 | 0.00 | 0.00 | 81 | 995.9 |
| 20260905234121 | 84 | 85 | 2.0 | 3.0 | 0.00 | 0.00 | 0.00 | 80 | 996.3 |
| 20260905233120 | 84 | 195 | 2.0 | 4.0 | 0.00 | 0.00 | 0.00 | 79 | 996.7 |
| 20260905232600 | 84 | 139 | 2.0 | 5.0 | 0.00 | 0.00 | 0.00 | 79 | 997.0 |
| 20260905231121 | 84 | 137 | 2.0 | 5.0 | 0.00 | 0.00 | 0.00 | 78 | 996.9 |
| 20260905230121 | 84 | 157 | 2.0 | 6.0 | 0.00 | 0.00 | 0.00 | 78 | 997.5 |
| 20260905225121 | 85 | 154 | 3.0 | 6.0 | 0.00 | 0.00 | 0.00 | 77 | 998.0 |
| 20260905224119 | 85 | 161 | 3.0 | 6.0 | 0.00 | 0.00 | 0.00 | 76 | 999.1 |
| 20260905223115 | 85 | 162 | 2.0 | 6.0 | 0.00 | 0.00 | 0.00 | 76 | 998.9 |
| 20260905222115 | 85 | 117 | 2.0 | 4.0 | 0.00 | 0.00 | 0.00 | 75 | 999.0 |
| 20260905221116 | 86 | 133 | 2.0 | 7.0 | 0.00 | 0.00 | 0.00 | 75 | 999.2 |
| 20260905220122 | 86 | 109 | 2.0 | 5.0 | 0.00 | 0.00 | 0.00 | 74 | 999.4 |
| 20260905215138 | 86 | 188 | 3.0 | 5.0 | 0.00 | 0.00 | 0.00 | 74 | 999.4 |
| 20260905214116 | 87 | 142 | 2.0 | 5.0 | 0.00 | 0.00 | 0.00 | 73 | 1000.4 |
| 20260905213116 | 87 | 166 | 2.0 | 5.0 | 0.00 | 0.00 | 0.00 | 73 | 1000.3 |
| 20260905212113 | 87 | 167 | 2.0 | 6.0 | 0.00 | 0.00 | 0.00 | 72 | 1000.3 |
| 20260905211110 | 87 | 112 | 2.0 | 6.0 | 0.00 | 0.00 | 0.00 | 71 | 1000.5 |
| 20260905210123 | 87 | 170 | 3.0 | 6.0 | 0.00 | 0.00 | 0.00 | 71 | 1000.3 |
| 20260905205111 | 87 | 193 | 3.0 | 7.0 | 0.00 | 0.00 | 0.00 | 70 | 1000.1 |
| 20260905204112 | 88 | 225 | 3.0 | 7.0 | 0.00 | 0.00 | 0.00 | 72 | 1000.0 |
| 20260905203111 | 88 | 220 | 3.0 | 7.0 | 0.00 | 0.00 | 0.00 | 72 | 999.8 |
| 20260905202111 | 89 | 182 | 3.0 | 5.0 | 0.00 | 0.00 | 0.00 | 70 | 1000.4 |
| 20260905201109 | 90 | 205 | 2.0 | 4.0 | 0.00 | 0.01 | 0.00 | 68 | 1001.2 |
| 20260905195551 | 91 | 190 | 2.0 | 7.0 | 0.00 | 0.01 | 0.00 | 68 | 1002.4 |
| 20260905194106 | 91 | 193 | 3.0 | 6.0 | 0.00 | 0.01 | 0.00 | 68 | 1001.8 |
| 20260905193106 | 92 | 245 | 2.0 | 6.0 | 0.00 | 0.01 | 0.00 | 66 | 1004.0 |
| 20260905192105 | 92 | 316 | 3.0 | 7.0 | 0.00 | 0.01 | 0.00 | 64 | 1011.3 |
| 20260905191106 | 91 | 268 | 3.0 | 8.0 | 0.00 | 0.01 | 0.00 | 69 | 1005.3 |
| 20260905190106 | 91 | 211 | 3.0 | 7.0 | 0.00 | 0.03 | 0.00 | 69 | 1005.3 |
| 20260905185106 | 90 | 264 | 4.0 | 8.0 | 0.00 | 0.04 | 0.00 | 70 | 1008.9 |
| 20260905184106 | 91 | 204 | 3.0 | 6.0 | 0.00 | 0.04 | 0.00 | 72 | 1007.0 |
| 20260905183106 | 92 | 192 | 2.0 | 5.0 | 0.00 | 0.04 | 0.00 | 68 | 1010.5 |
| 20260905182104 | 91 | 204 | 2.0 | 5.0 | 0.00 | 0.12 | 0.00 | 69 | 1009.5 |
| 20260905181104 | 92 | 219 | 2.0 | 5.0 | 0.00 | 0.14 | 0.00 | 68 | 1005.4 |
| 20260905180108 | 92 | 199 | 2.0 | 5.0 | 0.00 | 0.14 | 0.00 | 68 | 1011.5 |
| 20260905175104 | 91 | 266 | 2.0 | 6.0 | 0.00 | 0.14 | 0.00 | 68 | 1012.2 |
| 20260905174104 | 90 | 298 | 3.0 | 5.0 | 0.00 | 0.14 | 0.00 | 73 | 1009.8 |
| 20260905173104 | 90 | 53 | 3.0 | 6.0 | 0.00 | 0.14 | 0.00 | 71 | 1006.3 |
| 20260905172549 | 90 | 16 | 2.0 | 5.0 | 0.00 | 0.14 | 0.00 | 73 | 1010.1 |
| 20260905171102 | 90 | 31 | 2.0 | 6.0 | 0.00 | 0.14 | 0.00 | 72 | 1003.9 |
| 20260905170114 | 90 | 12 | 3.0 | 6.0 | 0.00 | 0.14 | 0.00 | 73 | 1007.2 |
| 20260905165541 | 90 | 12 | 3.0 | 7.0 | 0.00 | 0.14 | 0.00 | 74 | 1009.8 |
| 20260905164100 | 91 | 274 | 2.0 | 7.0 | 0.00 | 0.14 | 0.00 | 70 | 1012.7 |
| 20260905163100 | 91 | 290 | 2.0 | 4.0 | 0.00 | 0.14 | 0.00 | 71 | 1011.0 |
| 20260905162100 | 91 | 33 | 3.0 | 6.0 | 0.00 | 0.14 | 0.00 | 72 | 1012.4 |
| 20260905161100 | 91 | 347 | 2.0 | 7.0 | 0.00 | 0.14 | 0.00 | 73 | 1013.4 |
| 20260905160109 | 89 | 1 | 2.0 | 4.0 | 0.00 | 0.14 | 0.00 | 76 | 1013.2 |
| 20260905155056 | 87 | 341 | 2.0 | 6.0 | 0.00 | 0.14 | 0.00 | 79 | 1012.4 |
| 20260905154057 | 85 | 17 | 1.0 | 3.0 | 0.00 | 0.14 | 0.00 | 84 | 1005.4 |
| 20260905153057 | 85 | 12 | 2.0 | 4.0 | 0.00 | 0.14 | 0.00 | 84 | 1001.4 |
| 20260905152554 | 86 | 8 | 2.0 | 5.0 | 0.00 | 0.14 | 0.00 | 81 | 1001.8 |
| 20260905151057 | 86 | 270 | 2.0 | 4.0 | 0.00 | 0.14 | 0.00 | 81 | 1005.4 |
| 20260905150110 | 86 | 253 | 2.0 | 5.0 | 0.00 | 0.14 | 0.00 | 80 | 1003.1 |
| 20260905145057 | 87 | 233 | 2.0 | 5.0 | 0.00 | 0.14 | 0.00 | 78 | 1005.5 |
| 20260905144058 | 87 | 284 | 1.0 | 5.0 | 0.00 | 0.14 | 0.00 | 79 | 1004.0 |
| 20260905143055 | 88 | 356 | 2.0 | 5.0 | 0.00 | 0.14 | 0.00 | 78 | 1005.5 |
| 20260905142054 | 88 | 219 | 2.0 | 5.0 | 0.00 | 0.14 | 0.00 | 77 | 1009.7 |
| 20260905141108 | 87 | 325 | 2.0 | 5.0 | 0.00 | 0.14 | 0.00 | 79 | 1010.0 |
| 20260905140107 | 86 | 240 | 1.0 | 4.0 | 0.00 | 0.14 | 0.00 | 81 | 1009.5 |
| 20260905135108 | 86 | 1 | 2.0 | 4.0 | 0.00 | 0.14 | 0.00 | 83 | 1008.5 |
| 20260905134055 | 85 | 32 | 2.0 | 4.0 | 0.00 | 0.14 | 0.00 | 85 | 1008.0 |
| 20260905133108 | 85 | 200 | 1.0 | 4.0 | 0.00 | 0.14 | 0.00 | 85 | 1007.2 |
| 20260905132052 | 84 | 341 | 1.0 | 5.0 | 0.00 | 0.14 | 0.00 | 88 | 1004.7 |
| 20260905131052 | 83 | 226 | 1.0 | 3.0 | 0.00 | 0.14 | 0.00 | 90 | 1003.4 |
| 20260905130053 | 82 | 357 | 1.0 | 4.0 | 0.00 | 0.14 | 0.00 | 91 | 1002.4 |
| 20260905125052 | 81 | 276 | 2.0 | 4.0 | 0.00 | 0.14 | 0.00 | 93 | 1002.4 |
| 20260905124051 | 80 | 197 | 1.0 | 6.0 | 0.00 | 0.14 | 0.00 | 94 | 1002.2 |
| 20260905123052 | 80 | 208 | 1.0 | 4.0 | 0.00 | 0.14 | 0.00 | 95 | 1002.0 |
| 20260905122051 | 79 | 0 | 0.0 | 2.0 | 0.00 | 0.14 | 0.00 | 96 | 1001.4 |
| 20260905121052 | 78 | 216 | 0.0 | 2.0 | 0.00 | 0.14 | 0.00 | 96 | 999.7 |
| 20260905120105 | 78 | 351 | 0.0 | 1.0 | 0.00 | 0.14 | 0.00 | 96 | 999.0 |
| 20260905115053 | 77 | 250 | 0.0 | 2.0 | 0.00 | 0.14 | 0.00 | 96 | 998.6 |
| 20260905114039 | 77 | 0 | 1.0 | 3.0 | 0.00 | 0.14 | 0.00 | 96 | 998.4 |
| 20260905113024 | 77 | 251 | 1.0 | 3.0 | 0.00 | 0.14 | 0.00 | 96 | 998.1 |
| 20260905112507 | 77 | 0 | 1.0 | 3.0 | 0.00 | 0.14 | 0.00 | 96 | 998.0 |
| 20260905111024 | 77 | 0 | 0.0 | 2.0 | 0.00 | 0.14 | 0.00 | 96 | 998.0 |
| 20260905110025 | 77 | 355 | 1.0 | 2.0 | 0.00 | 0.14 | 0.00 | 96 | 997.9 |
| 20260905105010 | 77 | 287 | 1.0 | 3.0 | 0.00 | 0.14 | 0.00 | 96 | 998.0 |
| 20260905104009 | 78 | 199 | 1.0 | 2.0 | 0.00 | 0.14 | 0.00 | 96 | 997.8 |
| 20260905103009 | 78 | 0 | 1.0 | 3.0 | 0.00 | 0.14 | 0.00 | 96 | 997.7 |
| 20260905100954 | 77 | 186 | 2.0 | 4.0 | 0.00 | 0.14 | 0.00 | 96 | 997.4 |
| 20260905100439 | 77 | 189 | 2.0 | 4.0 | 0.00 | 0.14 | 0.00 | 96 | 997.6 |
| 20260905095426 | 77 | 214 | 2.0 | 4.0 | 0.00 | 0.14 | 0.00 | 96 | 997.4 |
| 20260905093940 | 77 | 253 | 2.0 | 4.0 | 0.00 | 0.14 | 0.00 | 96 | 997.6 |
| 20260905092925 | 77 | 188 | 2.0 | 3.0 | 0.00 | 0.14 | 0.00 | 96 | 997.6 |
| 20260905091925 | 77 | 208 | 2.0 | 4.0 | 0.00 | 0.14 | 0.00 | 96 | 997.7 |
| 20260905085911 | 77 | 210 | 1.0 | 3.0 | 0.00 | 0.14 | 0.00 | 96 | 997.5 |
| 20260905085351 | 77 | 203 | 1.0 | 3.0 | 0.00 | 0.14 | 0.00 | 96 | 997.4 |
| 20260905083907 | 77 | 222 | 1.0 | 3.0 | 0.00 | 0.14 | 0.00 | 95 | 997.2 |
| 20260905082908 | 77 | 0 | 1.0 | 3.0 | 0.00 | 0.14 | 0.00 | 95 | 997.2 |
| 20260905081908 | 77 | 190 | 1.0 | 3.0 | 0.00 | 0.14 | 0.00 | 95 | 996.9 |
| 20260905080908 | 77 | 0 | 0.0 | 2.0 | 0.00 | 0.14 | 0.00 | 95 | 996.7 |
| 20260905075920 | 77 | 0 | 0.0 | 2.0 | 0.00 | 0.14 | 0.00 | 95 | 996.9 |
| 20260905074907 | 77 | 244 | 0.0 | 2.0 | 0.00 | 0.14 | 0.00 | 95 | 996.9 |
| 20260905073906 | 77 | 295 | 2.0 | 5.0 | 0.00 | 0.14 | 0.00 | 95 | 997.2 |
| 20260905072915 | 77 | 280 | 1.0 | 5.0 | 0.00 | 0.14 | 0.00 | 95 | 997.2 |
| 20260905071905 | 77 | 204 | 2.0 | 5.0 | 0.00 | 0.14 | 0.00 | 95 | 997.3 |
| 20260905070903 | 77 | 189 | 1.0 | 4.0 | 0.00 | 0.14 | 0.00 | 95 | 997.4 |
| 20260905070343 | 77 | 202 | 2.0 | 5.0 | 0.00 | 0.14 | 0.00 | 95 | 997.6 |
| 20260905064900 | 77 | 239 | 1.0 | 4.0 | 0.00 | 0.14 | 0.00 | 94 | 997.4 |
| 20260905063900 | 77 | 107 | 2.0 | 4.0 | 0.00 | 0.14 | 0.00 | 94 | 997.5 |
| 20260905062900 | 77 | 302 | 1.0 | 3.0 | 0.00 | 0.14 | 0.00 | 94 | 997.6 |
| 20260905061900 | 77 | 210 | 1.0 | 4.0 | 0.00 | 0.14 | 0.00 | 94 | 997.7 |
| 20260905061339 | 77 | 191 | 2.0 | 6.0 | 0.00 | 0.14 | 0.00 | 94 | 997.8 |
| 20260905055901 | 77 | 221 | 2.0 | 5.0 | 0.00 | 0.14 | 0.00 | 94 | 997.9 |
| 20260905053914 | 77 | 182 | 1.0 | 3.0 | 0.00 | 0.14 | 0.00 | 94 | 997.8 |
| 20260905053346 | 77 | 137 | 2.0 | 4.0 | 0.00 | 0.14 | 0.00 | 94 | 998.0 |
| 20260905052338 | 77 | 149 | 2.0 | 5.0 | 0.00 | 0.14 | 0.00 | 94 | 998.0 |
| 20260905050858 | 77 | 174 | 2.0 | 5.0 | 0.00 | 0.14 | 0.00 | 94 | 998.4 |
| 20260905045859 | 77 | 105 | 1.0 | 3.0 | 0.00 | 0.14 | 0.00 | 94 | 998.4 |
| 20260905044858 | 77 | 0 | 2.0 | 5.0 | 0.00 | 0.14 | 0.00 | 93 | 998.5 |
| 20260905043858 | 77 | 184 | 1.0 | 3.0 | 0.00 | 0.14 | 0.00 | 93 | 998.4 |
| 20260905042859 | 78 | 181 | 1.0 | 4.0 | 0.00 | 0.14 | 0.00 | 93 | 998.5 |
| 20260905041857 | 78 | 161 | 1.0 | 4.0 | 0.00 | 0.14 | 0.00 | 93 | 999.2 |
| 20260905040858 | 78 | 161 | 1.0 | 4.0 | 0.00 | 0.14 | 0.00 | 93 | 999.0 |
| 20260905035858 | 78 | 95 | 2.0 | 6.0 | 0.00 | 0.14 | 0.14 | 93 | 998.9 |
| 20260905034857 | 78 | 77 | 2.0 | 4.0 | 0.00 | 0.14 | 0.14 | 92 | 998.9 |
| 20260905033858 | 79 | 215 | 1.0 | 4.0 | 0.00 | 0.14 | 0.14 | 92 | 999.1 |
| 20260905032857 | 79 | 234 | 2.0 | 4.0 | 0.00 | 0.14 | 0.14 | 92 | 999.1 |
| 20260905031858 | 79 | 213 | 2.0 | 7.0 | 0.00 | 0.14 | 0.14 | 92 | 999.2 |
| 20260905030858 | 79 | 226 | 2.0 | 5.0 | 0.00 | 0.14 | 0.14 | 91 | 999.9 |
| 20260905025858 | 79 | 208 | 2.0 | 5.0 | 0.00 | 0.14 | 0.14 | 91 | 999.9 |
| 20260905024854 | 79 | 209 | 1.0 | 4.0 | 0.00 | 0.14 | 0.14 | 92 | 999.7 |
| 20260905023854 | 78 | 218 | 2.0 | 4.0 | 0.00 | 0.14 | 0.14 | 92 | 999.9 |